Time,TemperatureF,DewpointF,PressureIn,WindDirection,WindDirectionDegrees,WindSpeedMPH,WindSpeedGustMPH,Humidity,HourlyPrecipIn,Conditions,Clouds,dailyrainin,SoftwareType,DateUTC
2013-08-03 00:05:00,70.0,69.1,29.95,West,278,0.0,1.0,97,0.00,,,0.00,Wunderground v.1.15,2013-08-03 04:05:00,
2013-08-03 00:09:00,70.0,69.1,29.95,West,278,0.0,0.0,97,0.00,,,0.00,Wunderground v.1.15,2013-08-03 04:09:00,
2013-08-03 00:14:00,69.9,69.0,29.94,West,278,0.0,0.0,97,0.00,,,0.00,Wunderground v.1.15,2013-08-03 04:14:00,
2013-08-03 00:19:00,69.9,69.0,29.94,West,278,0.0,0.0,97,0.00,,,0.00,Wunderground v.1.15,2013-08-03 04:19:00,
2013-08-03 00:24:00,69.8,68.9,29.94,West,278,0.0,0.0,97,0.00,,,0.00,Wunderground v.1.15,2013-08-03 04:24:00,
2013-08-03 00:34:00,69.7,68.8,29.94,West,278,0.0,0.0,97,0.00,,,0.00,Wunderground v.1.15,2013-08-03 04:34:00,
2013-08-03 00:39:00,69.7,68.8,29.94,West,278,0.0,0.0,97,0.00,,,0.00,Wunderground v.1.15,2013-08-03 04:39:00,
2013-08-03 00:44:00,69.7,68.8,29.95,West,278,0.0,0.0,97,0.00,,,0.00,Wunderground v.1.15,2013-08-03 04:44:00,
2013-08-03 00:49:00,69.6,68.7,29.95,West,278,0.0,0.0,97,0.00,,,0.00,Wunderground v.1.15,2013-08-03 04:49:00,
2013-08-03 00:59:00,69.5,68.6,29.95,West,278,0.0,0.0,97,0.00,,,0.00,Wunderground v.1.15,2013-08-03 04:59:00,
2013-08-03 01:04:00,69.5,68.6,29.94,West,278,0.0,0.0,97,0.00,,,0.00,Wunderground v.1.15,2013-08-03 05:04:00,
2013-08-03 01:09:00,69.5,68.6,29.94,West,278,0.0,0.0,97,0.00,,,0.00,Wunderground v.1.15,2013-08-03 05:09:00,
2013-08-03 01:14:00,69.4,68.5,29.95,West,278,0.0,0.0,97,0.00,,,0.00,Wunderground v.1.15,2013-08-03 05:14:00,
2013-08-03 01:19:00,69.4,68.5,29.95,West,278,0.0,0.0,97,0.00,,,0.00,Wunderground v.1.15,2013-08-03 05:19:00,
2013-08-03 01:29:00,69.4,68.5,29.95,West,278,0.0,0.0,97,0.00,,,0.00,Wunderground v.1.15,2013-08-03 05:29:00,
2013-08-03 01:34:00,69.3,68.4,29.95,West,278,0.0,0.0,97,0.00,,,0.00,Wunderground v.1.15,2013-08-03 05:34:00,
2013-08-03 01:39:00,69.3,68.4,29.95,West,278,0.0,0.0,97,0.00,,,0.00,Wunderground v.1.15,2013-08-03 05:39:00,
2013-08-03 01:49:00,69.3,68.4,29.95,West,278,0.0,0.0,97,0.00,,,0.00,Wunderground v.1.15,2013-08-03 05:49:00,
2013-08-03 01:54:00,69.3,68.4,29.95,West,278,0.0,0.0,97,0.00,,,0.00,Wunderground v.1.15,2013-08-03 05:54:00,
2013-08-03 01:59:00,69.3,68.4,29.95,West,278,0.0,0.0,97,0.00,,,0.00,Wunderground v.1.15,2013-08-03 05:59:00,
2013-08-03 02:09:00,69.3,68.4,29.95,West,278,0.0,0.0,97,0.00,,,0.00,Wunderground v.1.15,2013-08-03 06:09:00,
2013-08-03 02:14:00,69.2,68.3,29.94,West,278,0.0,0.0,97,0.00,,,0.00,Wunderground v.1.15,2013-08-03 06:14:00,
2013-08-03 02:19:00,69.2,68.3,29.94,West,278,0.0,0.0,97,0.00,,,0.00,Wunderground v.1.15,2013-08-03 06:19:00,
2013-08-03 02:24:00,69.2,68.3,29.94,West,278,0.0,0.0,97,0.00,,,0.00,Wunderground v.1.15,2013-08-03 06:24:00,
2013-08-03 02:29:00,69.1,68.2,29.93,West,278,0.0,0.0,97,0.00,,,0.00,Wunderground v.1.15,2013-08-03 06:29:00,
2013-08-03 02:39:00,68.8,67.9,29.93,West,278,0.0,0.0,97,0.00,,,0.00,Wunderground v.1.15,2013-08-03 06:39:00,
2013-08-03 02:44:00,68.7,67.8,29.93,West,278,0.0,0.0,97,0.00,,,0.00,Wunderground v.1.15,2013-08-03 06:44:00,
2013-08-03 02:49:00,68.6,67.7,29.93,West,278,0.0,0.0,97,0.00,,,0.00,Wunderground v.1.15,2013-08-03 06:49:00,
2013-08-03 02:54:00,68.5,67.6,29.93,West,278,0.0,0.0,97,0.00,,,0.00,Wunderground v.1.15,2013-08-03 06:54:00,
2013-08-03 03:04:00,68.4,67.5,29.93,West,278,0.0,0.0,97,0.00,,,0.00,Wunderground v.1.15,2013-08-03 07:04:00,
2013-08-03 03:09:00,68.4,67.5,29.93,West,278,0.0,0.0,97,0.00,,,0.00,Wunderground v.1.15,2013-08-03 07:09:00,
2013-08-03 03:14:00,68.5,67.9,29.92,West,278,0.0,0.0,98,0.00,,,0.00,Wunderground v.1.15,2013-08-03 07:14:00,
2013-08-03 03:19:00,68.5,67.9,29.92,West,278,0.0,0.0,98,0.00,,,0.00,Wunderground v.1.15,2013-08-03 07:19:00,
2013-08-03 03:24:00,68.5,67.9,29.92,West,278,0.0,0.0,98,0.00,,,0.00,Wunderground v.1.15,2013-08-03 07:24:00,
2013-08-03 03:34:00,68.5,67.9,29.92,West,278,0.0,0.0,98,0.00,,,0.00,Wunderground v.1.15,2013-08-03 07:34:00,
2013-08-03 03:39:00,68.6,68.0,29.92,West,278,0.0,0.0,98,0.00,,,0.00,Wunderground v.1.15,2013-08-03 07:39:00,
2013-08-03 03:44:00,68.5,67.9,29.92,West,278,0.0,0.0,98,0.00,,,0.00,Wunderground v.1.15,2013-08-03 07:44:00,
2013-08-03 03:54:00,68.6,68.0,29.92,West,278,0.0,0.0,98,0.00,,,0.00,Wunderground v.1.15,2013-08-03 07:54:00,
2013-08-03 03:59:00,68.6,68.0,29.92,West,278,0.0,0.0,98,0.00,,,0.00,Wunderground v.1.15,2013-08-03 07:59:00,
2013-08-03 04:04:00,68.6,68.0,29.92,West,278,0.0,0.0,98,0.00,,,0.00,Wunderground v.1.15,2013-08-03 08:04:00,
2013-08-03 04:09:00,68.6,68.0,29.92,West,278,0.0,0.0,98,0.00,,,0.00,Wunderground v.1.15,2013-08-03 08:09:00,
2013-08-03 04:14:00,68.7,68.1,29.92,West,278,0.0,0.0,98,0.00,,,0.00,Wunderground v.1.15,2013-08-03 08:14:00,
2013-08-03 04:24:00,68.7,68.1,29.92,West,278,0.0,0.0,98,0.00,,,0.00,Wunderground v.1.15,2013-08-03 08:24:00,
2013-08-03 04:29:00,68.7,68.1,29.92,West,278,0.0,0.0,98,0.00,,,0.00,Wunderground v.1.15,2013-08-03 08:29:00,
2013-08-03 04:34:00,68.7,68.1,29.92,West,278,0.0,0.0,98,0.00,,,0.00,Wunderground v.1.15,2013-08-03 08:34:00,
2013-08-03 04:39:00,68.6,68.0,29.92,West,278,0.0,0.0,98,0.00,,,0.00,Wunderground v.1.15,2013-08-03 08:39:00,
2013-08-03 04:49:00,68.4,67.8,29.92,West,278,0.0,0.0,98,0.00,,,0.00,Wunderground v.1.15,2013-08-03 08:49:00,
2013-08-03 04:54:00,68.3,67.4,29.92,West,278,0.0,0.0,97,0.00,,,0.00,Wunderground v.1.15,2013-08-03 08:54:00,
2013-08-03 04:59:00,68.2,67.6,29.92,West,278,0.0,0.0,98,0.00,,,0.00,Wunderground v.1.15,2013-08-03 08:59:00,
2013-08-03 05:04:00,68.1,67.5,29.92,West,278,0.0,0.0,98,0.00,,,0.00,Wunderground v.1.15,2013-08-03 09:04:00,
2013-08-03 05:09:00,68.1,67.5,29.92,West,278,0.0,0.0,98,0.00,,,0.00,Wunderground v.1.15,2013-08-03 09:09:00,
2013-08-03 05:19:00,68.0,67.4,29.92,West,278,0.0,0.0,98,0.00,,,0.00,Wunderground v.1.15,2013-08-03 09:19:00,
2013-08-03 05:24:00,68.0,67.4,29.92,West,278,0.0,0.0,98,0.00,,,0.00,Wunderground v.1.15,2013-08-03 09:24:00,
2013-08-03 05:29:00,68.0,67.4,29.93,West,278,0.0,0.0,98,0.00,,,0.00,Wunderground v.1.15,2013-08-03 09:29:00,
2013-08-03 05:34:00,68.0,67.4,29.93,West,278,0.0,0.0,98,0.00,,,0.00,Wunderground v.1.15,2013-08-03 09:34:00,
2013-08-03 05:44:00,68.0,67.4,29.93,West,278,0.0,0.0,98,0.00,,,0.00,Wunderground v.1.15,2013-08-03 09:44:00,
2013-08-03 05:49:00,68.0,67.4,29.93,West,278,0.0,0.0,98,0.00,,,0.00,Wunderground v.1.15,2013-08-03 09:49:00,
2013-08-03 05:54:00,67.9,67.3,29.93,West,278,0.0,0.0,98,0.00,,,0.00,Wunderground v.1.15,2013-08-03 09:54:00,
2013-08-03 05:59:00,67.9,67.3,29.94,West,278,0.0,0.0,98,0.00,,,0.00,Wunderground v.1.15,2013-08-03 09:59:00,
2013-08-03 06:04:00,67.9,67.3,29.94,West,278,0.0,0.0,98,0.00,,,0.00,Wunderground v.1.15,2013-08-03 10:04:00,
2013-08-03 06:14:00,67.9,67.3,29.94,West,278,0.0,0.0,98,0.00,,,0.00,Wunderground v.1.15,2013-08-03 10:14:00,
2013-08-03 06:19:00,67.9,67.3,29.94,West,278,0.0,0.0,98,0.00,,,0.00,Wunderground v.1.15,2013-08-03 10:19:00,
2013-08-03 06:24:00,67.9,67.3,29.94,West,278,0.0,0.0,98,0.00,,,0.00,Wunderground v.1.15,2013-08-03 10:24:00,
2013-08-03 06:29:00,67.8,67.2,29.94,West,278,0.0,0.0,98,0.00,,,0.00,Wunderground v.1.15,2013-08-03 10:29:00,
2013-08-03 06:39:00,67.8,67.2,29.94,West,278,0.0,0.0,98,0.00,,,0.00,Wunderground v.1.15,2013-08-03 10:39:00,
2013-08-03 06:44:00,67.9,67.3,29.94,West,278,0.0,0.0,98,0.00,,,0.00,Wunderground v.1.15,2013-08-03 10:44:00,
2013-08-03 06:49:00,67.9,67.3,29.94,West,278,0.0,0.0,98,0.00,,,0.00,Wunderground v.1.15,2013-08-03 10:49:00,
2013-08-03 06:54:00,68.0,67.4,29.94,West,278,0.0,0.0,98,0.00,,,0.00,Wunderground v.1.15,2013-08-03 10:54:00,
2013-08-03 06:59:00,68.1,67.5,29.94,West,278,0.0,0.0,98,0.00,,,0.00,Wunderground v.1.15,2013-08-03 10:59:00,
2013-08-03 07:09:00,68.3,67.7,29.94,West,278,0.0,0.0,98,0.00,,,0.00,Wunderground v.1.15,2013-08-03 11:09:00,
2013-08-03 07:14:00,68.4,67.8,29.94,West,278,0.0,0.0,98,0.00,,,0.00,Wunderground v.1.15,2013-08-03 11:14:00,
2013-08-03 07:19:00,68.6,68.3,29.94,West,278,0.0,0.0,99,0.00,,,0.00,Wunderground v.1.15,2013-08-03 11:19:00,
2013-08-03 07:24:00,68.6,68.3,29.94,West,278,0.0,0.0,99,0.00,,,0.00,Wunderground v.1.15,2013-08-03 11:24:00,
2013-08-03 07:34:00,68.7,68.1,29.94,West,278,0.0,0.0,98,0.00,,,0.00,Wunderground v.1.15,2013-08-03 11:34:00,
2013-08-03 07:39:00,68.8,68.2,29.94,West,278,0.0,0.0,98,0.00,,,0.00,Wunderground v.1.15,2013-08-03 11:39:00,
2013-08-03 07:44:00,68.8,68.2,29.94,West,278,0.0,0.0,98,0.00,,,0.00,Wunderground v.1.15,2013-08-03 11:44:00,
2013-08-03 07:49:00,69.0,68.4,29.94,West,278,0.0,0.0,98,0.00,,,0.00,Wunderground v.1.15,2013-08-03 11:49:00,
2013-08-03 07:54:00,69.1,68.5,29.94,West,278,0.0,0.0,98,0.00,,,0.00,Wunderground v.1.15,2013-08-03 11:54:00,
2013-08-03 08:04:00,69.4,69.1,29.94,West,278,0.0,0.0,99,0.00,,,0.00,Wunderground v.1.15,2013-08-03 12:04:00,
2013-08-03 08:09:00,69.7,69.4,29.94,West,278,0.0,0.0,99,0.00,,,0.00,Wunderground v.1.15,2013-08-03 12:09:00,
2013-08-03 08:14:00,69.9,69.6,29.94,WSW,253,0.0,0.0,99,0.00,,,0.00,Wunderground v.1.15,2013-08-03 12:14:00,
2013-08-03 08:19:00,70.1,69.8,29.94,WSW,252,0.0,0.0,99,0.00,,,0.00,Wunderground v.1.15,2013-08-03 12:19:00,
2013-08-03 08:24:00,70.3,70.0,29.94,West,266,0.0,0.0,99,0.00,,,0.00,Wunderground v.1.15,2013-08-03 12:24:00,
2013-08-03 08:34:00,71.2,70.9,29.94,West,267,0.0,0.0,99,0.00,,,0.00,Wunderground v.1.15,2013-08-03 12:34:00,
2013-08-03 08:39:00,71.7,71.4,29.94,West,266,0.0,0.0,99,0.00,,,0.00,Wunderground v.1.15,2013-08-03 12:39:00,
2013-08-03 08:44:00,72.1,71.8,29.94,West,267,0.0,0.0,99,0.00,,,0.00,Wunderground v.1.15,2013-08-03 12:44:00,
2013-08-03 08:49:00,72.7,72.4,29.94,West,267,0.0,0.0,99,0.00,,,0.00,Wunderground v.1.15,2013-08-03 12:49:00,
2013-08-03 08:59:00,73.5,73.2,29.94,SW,214,0.0,0.0,99,0.00,,,0.00,Wunderground v.1.15,2013-08-03 12:59:00,
2013-08-03 09:04:00,73.8,73.5,29.94,SW,214,0.0,0.0,99,0.00,,,0.00,Wunderground v.1.15,2013-08-03 13:04:00,
2013-08-03 09:09:00,74.0,73.7,29.94,SW,214,0.0,0.0,99,0.00,,,0.00,Wunderground v.1.15,2013-08-03 13:09:00,
2013-08-03 09:14:00,74.3,74.0,29.94,SW,217,0.0,0.0,99,0.00,,,0.00,Wunderground v.1.15,2013-08-03 13:14:00,
2013-08-03 09:19:00,74.5,74.2,29.94,SSE,154,1.0,1.0,99,0.00,,,0.00,Wunderground v.1.15,2013-08-03 13:19:00,
2013-08-03 09:29:00,75.0,74.4,29.94,WSW,244,0.0,0.0,98,0.00,,,0.00,Wunderground v.1.15,2013-08-03 13:29:00,
2013-08-03 09:34:00,75.2,74.6,29.95,SW,229,0.0,0.0,98,0.00,,,0.00,Wunderground v.1.15,2013-08-03 13:34:00,
2013-08-03 09:39:00,75.4,74.5,29.95,SSW,193,0.0,0.0,97,0.00,,,0.00,Wunderground v.1.15,2013-08-03 13:39:00,
2013-08-03 09:45:00,75.6,74.7,29.95,WSW,250,0.0,0.0,97,0.00,,,0.00,Wunderground v.1.15,2013-08-03 13:45:00,
2013-08-03 09:54:00,75.9,74.7,29.95,SW,222,0.0,0.0,96,0.00,,,0.00,Wunderground v.1.15,2013-08-03 13:54:00,
2013-08-03 09:59:00,76.0,74.5,29.95,NW,322,0.0,1.0,95,0.00,,,0.00,Wunderground v.1.15,2013-08-03 13:59:00,
2013-08-03 10:04:00,76.5,74.6,29.95,NNW,343,1.0,1.0,94,0.00,,,0.00,Wunderground v.1.15,2013-08-03 14:04:00,
2013-08-03 10:14:00,77.1,75.2,29.95,SW,231,1.0,1.0,94,0.00,,,0.00,Wunderground v.1.15,2013-08-03 14:14:00,
2013-08-03 10:19:00,77.5,75.0,29.95,SSW,203,0.0,0.0,92,0.00,,,0.00,Wunderground v.1.15,2013-08-03 14:19:00,
2013-08-03 10:24:00,77.6,74.8,29.95,SW,236,1.0,1.0,91,0.00,,,0.00,Wunderground v.1.15,2013-08-03 14:24:00,
2013-08-03 10:29:00,77.8,75.3,29.94,SE,139,2.0,2.0,92,0.00,,,0.00,Wunderground v.1.15,2013-08-03 14:29:00,
2013-08-03 10:34:00,78.2,75.7,29.94,West,270,1.0,2.0,92,0.00,,,0.00,Wunderground v.1.15,2013-08-03 14:34:00,
2013-08-03 10:44:00,78.9,75.7,29.94,South,186,1.0,3.0,90,0.00,,,0.00,Wunderground v.1.15,2013-08-03 14:44:00,
2013-08-03 10:49:00,79.3,75.8,29.93,SSW,208,1.0,1.0,89,0.00,,,0.00,Wunderground v.1.15,2013-08-03 14:49:00,
2013-08-03 10:54:00,79.6,76.1,29.93,South,169,1.0,1.0,89,0.00,,,0.00,Wunderground v.1.15,2013-08-03 14:54:00,
2013-08-03 10:59:00,80.0,76.5,29.93,ESE,105,1.0,1.0,89,0.00,,,0.00,Wunderground v.1.15,2013-08-03 14:59:00,
2013-08-03 11:09:00,80.6,76.0,29.93,WSW,245,1.0,1.0,86,0.00,,,0.00,Wunderground v.1.15,2013-08-03 15:09:00,
2013-08-03 11:14:00,81.1,76.9,29.93,WNW,290,1.0,1.0,87,0.00,,,0.00,Wunderground v.1.15,2013-08-03 15:14:00,
2013-08-03 11:19:00,81.2,76.3,29.92,ESE,121,1.0,1.0,85,0.00,,,0.00,Wunderground v.1.15,2013-08-03 15:19:00,
2013-08-03 11:24:00,81.2,77.0,29.92,SW,214,0.0,1.0,87,0.00,,,0.00,Wunderground v.1.15,2013-08-03 15:24:00,
2013-08-03 11:29:00,81.0,76.8,29.92,ESE,110,0.0,0.0,87,0.00,,,0.00,Wunderground v.1.15,2013-08-03 15:29:00,
2013-08-03 11:39:00,80.6,76.7,29.92,SSE,148,1.0,2.0,88,0.00,,,0.00,Wunderground v.1.15,2013-08-03 15:39:00,
2013-08-03 11:44:00,80.5,76.3,29.92,SSW,200,1.0,2.0,87,0.00,,,0.00,Wunderground v.1.15,2013-08-03 15:44:00,
2013-08-03 11:49:00,80.3,76.4,29.92,East,101,1.0,1.0,88,0.00,,,0.00,Wunderground v.1.15,2013-08-03 15:49:00,
2013-08-03 11:54:00,80.3,76.4,29.92,SSE,159,1.0,1.0,88,0.00,,,0.00,Wunderground v.1.15,2013-08-03 15:54:00,
2013-08-03 12:05:00,80.3,76.4,29.92,South,179,1.0,2.0,88,0.00,,,0.00,Wunderground v.1.15,2013-08-03 16:05:00,
2013-08-03 12:14:00,80.7,76.8,29.92,West,271,1.0,1.0,88,0.00,,,0.00,Wunderground v.1.15,2013-08-03 16:14:00,
2013-08-03 12:19:00,81.0,77.1,29.92,SSW,204,1.0,1.0,88,0.00,,,0.00,Wunderground v.1.15,2013-08-03 16:19:00,
2013-08-03 12:24:00,81.6,78.0,29.92,SSE,162,1.0,1.0,89,0.00,,,0.00,Wunderground v.1.15,2013-08-03 16:24:00,
2013-08-03 12:29:00,82.3,77.0,29.92,SW,217,1.0,1.0,84,0.00,,,0.00,Wunderground v.1.15,2013-08-03 16:29:00,
2013-08-03 12:34:00,82.9,77.9,29.92,SE,127,1.0,1.0,85,0.00,,,0.00,Wunderground v.1.15,2013-08-03 16:34:00,
2013-08-03 12:39:00,83.1,77.4,29.92,SW,223,1.0,1.0,83,0.00,,,0.00,Wunderground v.1.15,2013-08-03 16:39:00,
2013-08-03 12:49:00,83.8,78.1,29.91,WSW,238,1.0,1.0,83,0.00,,,0.00,Wunderground v.1.15,2013-08-03 16:49:00,
2013-08-03 12:54:00,84.1,77.6,29.91,NW,307,1.0,3.0,81,0.00,,,0.00,Wunderground v.1.15,2013-08-03 16:54:00,
2013-08-03 12:59:00,84.4,78.7,29.91,SW,221,1.0,2.0,83,0.00,,,0.00,Wunderground v.1.15,2013-08-03 16:59:00,
2013-08-03 13:04:00,84.5,77.6,29.91,SW,232,1.0,4.0,80,0.00,,,0.00,Wunderground v.1.15,2013-08-03 17:04:00,
2013-08-03 13:14:00,84.5,78.0,29.91,WSW,246,1.0,4.0,81,0.00,,,0.00,Wunderground v.1.15,2013-08-03 17:14:00,
2013-08-03 13:19:00,85.1,79.0,29.90,SSW,200,1.0,4.0,82,0.00,,,0.00,Wunderground v.1.15,2013-08-03 17:19:00,
2013-08-03 13:24:00,85.5,77.9,29.90,SW,236,1.0,4.0,78,0.00,,,0.00,Wunderground v.1.15,2013-08-03 17:24:00,
2013-08-03 13:34:00,86.3,78.2,29.90,SW,226,1.0,4.0,77,0.00,,,0.00,Wunderground v.1.15,2013-08-03 17:34:00,
2013-08-03 13:39:00,86.3,77.4,29.90,SE,143,1.0,4.0,75,0.00,,,0.00,Wunderground v.1.15,2013-08-03 17:39:00,
2013-08-03 13:44:00,86.2,77.7,29.90,NE,47,1.0,4.0,76,0.00,,,0.00,Wunderground v.1.15,2013-08-03 17:44:00,
2013-08-03 13:49:00,86.4,78.3,29.89,NNW,332,2.0,4.0,77,0.00,,,0.00,Wunderground v.1.15,2013-08-03 17:49:00,
2013-08-03 13:54:00,86.3,76.2,29.89,West,259,2.0,4.0,72,0.00,,,0.00,Wunderground v.1.15,2013-08-03 17:54:00,
2013-08-03 14:04:00,85.4,75.8,29.89,SSE,161,1.0,4.0,73,0.00,,,0.00,Wunderground v.1.15,2013-08-03 18:04:00,
2013-08-03 14:09:00,84.7,75.9,29.89,SW,232,0.0,4.0,75,0.00,,,0.00,Wunderground v.1.15,2013-08-03 18:09:00,
2013-08-03 14:14:00,83.9,75.5,29.89,SW,222,0.0,4.0,76,0.00,,,0.00,Wunderground v.1.15,2013-08-03 18:14:00,
2013-08-03 14:19:00,83.4,75.8,29.89,SW,222,0.0,4.0,78,0.00,,,0.00,Wunderground v.1.15,2013-08-03 18:19:00,
2013-08-03 14:24:00,83.0,75.8,29.89,WSW,257,0.0,4.0,79,0.00,,,0.00,Wunderground v.1.15,2013-08-03 18:24:00,
2013-08-03 14:34:00,81.7,75.7,29.88,WSW,257,0.0,4.0,82,0.00,,,0.00,Wunderground v.1.15,2013-08-03 18:34:00,
2013-08-03 14:39:00,80.9,75.6,29.88,WSW,257,0.0,4.0,84,0.00,,,0.00,Wunderground v.1.15,2013-08-03 18:39:00,
2013-08-03 14:44:00,80.0,75.4,29.89,WSW,257,0.0,4.0,86,0.00,,,0.00,Wunderground v.1.15,2013-08-03 18:44:00,
2013-08-03 14:49:00,79.6,75.7,29.89,WSW,257,0.0,4.0,88,0.00,,,0.00,Wunderground v.1.15,2013-08-03 18:49:00,
2013-08-03 14:59:00,79.0,75.5,29.89,WSW,257,0.0,4.0,89,0.00,,,0.00,Wunderground v.1.15,2013-08-03 18:59:00,
2013-08-03 15:04:00,78.8,75.6,29.89,WSW,257,0.0,4.0,90,0.00,,,0.00,Wunderground v.1.15,2013-08-03 19:04:00,
2013-08-03 15:09:00,78.6,75.4,29.89,WSW,257,0.0,4.0,90,0.00,,,0.01,Wunderground v.1.15,2013-08-03 19:09:00,
2013-08-03 15:14:00,78.3,75.5,29.89,WSW,257,0.0,4.0,91,0.00,,,0.01,Wunderground v.1.15,2013-08-03 19:14:00,
2013-08-03 15:19:00,78.1,75.6,29.89,WSW,257,0.0,4.0,92,0.00,,,0.01,Wunderground v.1.15,2013-08-03 19:19:00,
2013-08-03 15:29:00,77.2,74.7,29.89,WNW,283,1.0,4.0,92,2.20,,,0.10,Wunderground v.1.15,2013-08-03 19:29:00,
2013-08-03 15:34:00,76.5,74.3,29.89,WNW,285,0.0,4.0,93,0.69,,,0.19,Wunderground v.1.15,2013-08-03 19:34:00,
2013-08-03 15:39:00,75.9,73.7,29.89,WNW,286,0.0,4.0,93,0.47,,,0.25,Wunderground v.1.15,2013-08-03 19:39:00,
2013-08-03 15:49:00,75.1,73.6,29.89,North,350,1.0,1.0,95,0.36,,,0.32,Wunderground v.1.15,2013-08-03 19:49:00,
2013-08-03 15:54:00,74.8,73.3,29.89,North,350,1.0,4.0,95,0.12,,,0.33,Wunderground v.1.15,2013-08-03 19:54:00,
2013-08-03 15:59:00,74.7,73.2,29.87,North,350,0.0,4.0,95,0.41,,,0.38,Wunderground v.1.15,2013-08-03 19:59:00,
2013-08-03 16:04:00,74.6,73.4,29.87,North,350,0.0,4.0,96,0.10,,,0.38,Wunderground v.1.15,2013-08-03 20:04:00,
2013-08-03 16:09:00,74.4,73.2,29.87,North,350,0.0,4.0,96,0.06,,,0.38,Wunderground v.1.15,2013-08-03 20:09:00,
2013-08-03 16:19:00,74.1,72.9,29.88,North,350,0.0,4.0,96,0.00,,,0.39,Wunderground v.1.15,2013-08-03 20:19:00,
2013-08-03 16:24:00,74.1,72.9,29.88,North,350,0.0,4.0,96,0.15,,,0.40,Wunderground v.1.15,2013-08-03 20:24:00,
2013-08-03 16:29:00,74.1,72.9,29.88,North,350,0.0,4.0,96,0.13,,,0.41,Wunderground v.1.15,2013-08-03 20:29:00,
2013-08-03 16:34:00,74.0,72.8,29.88,North,350,0.0,4.0,96,0.06,,,0.41,Wunderground v.1.15,2013-08-03 20:34:00,
2013-08-03 16:44:00,73.8,72.9,29.88,North,350,0.0,4.0,97,0.00,,,0.42,Wunderground v.1.15,2013-08-03 20:44:00,
2013-08-03 16:49:00,73.8,72.9,29.88,North,350,0.0,4.0,97,0.00,,,0.42,Wunderground v.1.15,2013-08-03 20:49:00,
2013-08-03 16:54:00,73.7,72.8,29.88,North,350,0.0,4.0,97,0.00,,,0.42,Wunderground v.1.15,2013-08-03 20:54:00,
2013-08-03 16:59:00,73.8,72.9,29.87,North,350,0.0,4.0,97,0.05,,,0.43,Wunderground v.1.15,2013-08-03 20:59:00,
2013-08-03 17:09:00,74.1,73.2,29.87,North,350,0.0,4.0,97,0.04,,,0.43,Wunderground v.1.15,2013-08-03 21:09:00,
2013-08-03 17:14:00,74.3,73.7,29.87,North,350,0.0,4.0,98,0.00,,,0.43,Wunderground v.1.15,2013-08-03 21:14:00,
2013-08-03 17:19:00,74.4,73.8,29.87,North,350,0.0,4.0,98,0.00,,,0.43,Wunderground v.1.15,2013-08-03 21:19:00,
2013-08-03 17:24:00,74.6,74.0,29.87,North,350,0.0,4.0,98,0.00,,,0.44,Wunderground v.1.15,2013-08-03 21:24:00,
2013-08-03 17:29:00,74.8,74.2,29.87,North,350,0.0,4.0,98,0.00,,,0.44,Wunderground v.1.15,2013-08-03 21:29:00,
2013-08-03 17:39:00,75.3,74.7,29.87,North,350,0.0,4.0,98,0.00,,,0.44,Wunderground v.1.15,2013-08-03 21:39:00,
2013-08-03 17:44:00,75.3,74.7,29.87,North,350,0.0,4.0,98,0.00,,,0.44,Wunderground v.1.15,2013-08-03 21:44:00,
2013-08-03 17:49:00,75.2,74.6,29.87,North,350,0.0,4.0,98,0.00,,,0.44,Wunderground v.1.15,2013-08-03 21:49:00,
2013-08-03 17:54:00,75.1,74.5,29.87,North,350,0.0,4.0,98,0.00,,,0.44,Wunderground v.1.15,2013-08-03 21:54:00,
2013-08-03 17:59:00,75.1,74.5,29.87,North,350,0.0,4.0,98,0.00,,,0.44,Wunderground v.1.15,2013-08-03 21:59:00,
2013-08-03 18:09:00,75.3,74.7,29.87,North,350,0.0,4.0,98,1.06,,,0.50,Wunderground v.1.15,2013-08-03 22:09:00,
2013-08-03 18:14:00,75.4,74.8,29.86,NNE,22,0.0,4.0,98,0.27,,,0.59,Wunderground v.1.15,2013-08-03 22:14:00,
2013-08-03 18:19:00,74.8,73.9,29.86,NNE,22,0.0,4.0,97,0.13,,,0.60,Wunderground v.1.15,2013-08-03 22:19:00,
2013-08-03 18:24:00,74.6,73.7,29.86,NNE,22,0.0,4.0,97,0.16,,,0.61,Wunderground v.1.15,2013-08-03 22:24:00,
2013-08-03 18:29:00,74.5,73.6,29.87,NNE,22,0.0,4.0,97,0.09,,,0.62,Wunderground v.1.15,2013-08-03 22:29:00,
2013-08-03 18:39:00,74.5,73.9,29.87,SSW,195,0.0,4.0,98,0.05,,,0.62,Wunderground v.1.15,2013-08-03 22:39:00,
2013-08-03 18:44:00,74.5,73.9,29.86,SSW,195,0.0,4.0,98,0.00,,,0.62,Wunderground v.1.15,2013-08-03 22:44:00,
2013-08-03 18:49:00,74.5,73.9,29.86,SSW,194,0.0,4.0,98,0.00,,,0.62,Wunderground v.1.15,2013-08-03 22:49:00,
2013-08-03 18:54:00,74.4,73.8,29.86,SSW,195,0.0,4.0,98,0.00,,,0.62,Wunderground v.1.15,2013-08-03 22:54:00,
2013-08-03 19:04:00,74.4,73.8,29.86,SSW,195,0.0,4.0,98,0.00,,,0.62,Wunderground v.1.15,2013-08-03 23:04:00,
2013-08-03 19:09:00,74.4,73.8,29.86,SSW,195,0.0,4.0,98,0.00,,,0.62,Wunderground v.1.15,2013-08-03 23:09:00,
2013-08-03 19:14:00,74.4,73.8,29.86,SSW,195,0.0,4.0,98,0.00,,,0.62,Wunderground v.1.15,2013-08-03 23:14:00,
2013-08-03 19:19:00,74.4,73.8,29.86,SSW,195,0.0,4.0,98,0.00,,,0.62,Wunderground v.1.15,2013-08-03 23:19:00,
2013-08-03 19:29:00,74.6,74.0,29.86,SSW,195,0.0,4.0,98,0.00,,,0.62,Wunderground v.1.15,2013-08-03 23:29:00,
2013-08-03 19:34:00,74.6,74.0,29.86,SSW,195,0.0,4.0,98,0.00,,,0.62,Wunderground v.1.15,2013-08-03 23:34:00,
2013-08-03 19:39:00,74.5,73.9,29.86,WSW,238,0.0,4.0,98,0.00,,,0.62,Wunderground v.1.15,2013-08-03 23:39:00,
2013-08-03 19:44:00,74.3,73.7,29.86,WSW,238,0.0,4.0,98,0.00,,,0.62,Wunderground v.1.15,2013-08-03 23:44:00,
2013-08-03 19:49:00,74.1,73.5,29.86,WSW,238,0.0,4.0,98,0.00,,,0.62,Wunderground v.1.15,2013-08-03 23:49:00,
2013-08-03 19:59:00,73.9,73.3,29.86,SE,128,0.0,4.0,98,0.00,,,0.62,Wunderground v.1.15,2013-08-03 23:59:00,
2013-08-03 20:04:00,73.7,73.1,29.87,SE,128,0.0,4.0,98,0.00,,,0.62,Wunderground v.1.15,2013-08-04 00:04:00,
2013-08-03 20:09:00,73.6,73.0,29.87,SE,128,0.0,4.0,98,0.00,,,0.62,Wunderground v.1.15,2013-08-04 00:09:00,
2013-08-03 20:14:00,73.5,72.9,29.87,SE,128,0.0,4.0,98,0.00,,,0.62,Wunderground v.1.15,2013-08-04 00:14:00,
2013-08-03 20:19:00,73.4,72.8,29.87,SE,128,0.0,4.0,98,0.00,,,0.62,Wunderground v.1.15,2013-08-04 00:19:00,
2013-08-03 20:29:00,73.3,72.7,29.87,SE,128,0.0,4.0,98,0.00,,,0.62,Wunderground v.1.15,2013-08-04 00:29:00,
2013-08-03 20:34:00,73.2,72.6,29.87,SE,128,0.0,4.0,98,0.00,,,0.62,Wunderground v.1.15,2013-08-04 00:34:00,
2013-08-03 20:39:00,73.0,72.4,29.87,SE,128,0.0,4.0,98,0.00,,,0.62,Wunderground v.1.15,2013-08-04 00:39:00,
2013-08-03 20:44:00,72.9,72.3,29.87,SE,128,0.0,4.0,98,0.00,,,0.62,Wunderground v.1.15,2013-08-04 00:44:00,
2013-08-03 20:54:00,72.7,72.1,29.87,SE,128,0.0,4.0,98,0.00,,,0.62,Wunderground v.1.15,2013-08-04 00:54:00,
2013-08-03 20:59:00,72.6,72.0,29.87,SE,128,0.0,4.0,98,0.00,,,0.62,Wunderground v.1.15,2013-08-04 00:59:00,
2013-08-03 21:04:00,72.5,71.9,29.87,SE,128,0.0,4.0,98,0.00,,,0.62,Wunderground v.1.15,2013-08-04 01:04:00,
2013-08-03 21:09:00,72.4,71.8,29.87,SE,128,0.0,4.0,98,0.00,,,0.62,Wunderground v.1.15,2013-08-04 01:09:00,
2013-08-03 21:19:00,72.2,71.6,29.87,SE,128,0.0,4.0,98,0.00,,,0.62,Wunderground v.1.15,2013-08-04 01:19:00,
2013-08-03 21:24:00,72.1,71.5,29.87,SE,128,0.0,4.0,98,0.00,,,0.62,Wunderground v.1.15,2013-08-04 01:24:00,
2013-08-03 21:29:00,72.0,71.4,29.87,SE,128,0.0,4.0,98,0.00,,,0.62,Wunderground v.1.15,2013-08-04 01:29:00,
2013-08-03 21:34:00,71.8,71.2,29.88,SE,128,0.0,4.0,98,0.00,,,0.62,Wunderground v.1.15,2013-08-04 01:34:00,
2013-08-03 21:39:00,71.8,71.2,29.88,SE,128,0.0,4.0,98,0.00,,,0.62,Wunderground v.1.15,2013-08-04 01:39:00,
2013-08-03 21:49:00,71.6,71.0,29.88,SE,128,0.0,4.0,98,0.00,,,0.62,Wunderground v.1.15,2013-08-04 01:49:00,
2013-08-03 21:54:00,71.5,70.9,29.88,SE,128,0.0,4.0,98,0.00,,,0.62,Wunderground v.1.15,2013-08-04 01:54:00,
2013-08-03 21:59:00,71.4,70.8,29.88,SE,128,0.0,4.0,98,0.00,,,0.62,Wunderground v.1.15,2013-08-04 01:59:00,
2013-08-03 22:04:00,71.3,70.7,29.88,SE,128,0.0,4.0,98,0.00,,,0.62,Wunderground v.1.15,2013-08-04 02:04:00,
2013-08-03 22:09:00,71.2,70.6,29.88,SE,128,0.0,4.0,98,0.00,,,0.62,Wunderground v.1.15,2013-08-04 02:09:00,
2013-08-03 22:19:00,71.0,70.4,29.88,SE,128,0.0,4.0,98,0.00,,,0.62,Wunderground v.1.15,2013-08-04 02:19:00,
2013-08-03 22:24:00,70.9,70.3,29.88,SE,128,0.0,4.0,98,0.00,,,0.62,Wunderground v.1.15,2013-08-04 02:24:00,
2013-08-03 22:29:00,70.8,70.2,29.88,SE,128,0.0,4.0,98,0.00,,,0.62,Wunderground v.1.15,2013-08-04 02:29:00,
2013-08-03 22:34:00,70.8,70.2,29.88,SE,128,0.0,4.0,98,0.00,,,0.62,Wunderground v.1.15,2013-08-04 02:34:00,
2013-08-03 22:44:00,70.7,70.1,29.88,SE,128,0.0,4.0,98,0.00,,,0.62,Wunderground v.1.15,2013-08-04 02:44:00,
2013-08-03 22:49:00,70.6,70.0,29.88,SE,128,0.0,4.0,98,0.00,,,0.62,Wunderground v.1.15,2013-08-04 02:49:00,
2013-08-03 22:54:00,70.6,70.0,29.88,SE,128,0.0,4.0,98,0.00,,,0.62,Wunderground v.1.15,2013-08-04 02:54:00,
2013-08-03 22:59:00,70.5,69.9,29.88,SE,128,0.0,4.0,98,0.00,,,0.62,Wunderground v.1.15,2013-08-04 02:59:00,
2013-08-03 23:04:00,70.5,69.9,29.88,SE,128,0.0,4.0,98,0.00,,,0.62,Wunderground v.1.15,2013-08-04 03:04:00,
2013-08-03 23:14:00,70.3,69.7,29.88,SE,128,0.0,4.0,98,0.00,,,0.62,Wunderground v.1.15,2013-08-04 03:14:00,
2013-08-03 23:19:00,70.3,69.7,29.87,SE,128,0.0,4.0,98,0.00,,,0.62,Wunderground v.1.15,2013-08-04 03:19:00,
2013-08-03 23:24:00,70.3,69.7,29.87,SE,128,0.0,4.0,98,0.00,,,0.62,Wunderground v.1.15,2013-08-04 03:24:00,
2013-08-03 23:29:00,70.2,69.6,29.87,SE,128,0.0,4.0,98,0.00,,,0.62,Wunderground v.1.15,2013-08-04 03:29:00,
2013-08-03 23:39:00,70.1,69.5,29.87,SE,128,0.0,4.0,98,0.00,,,0.62,Wunderground v.1.15,2013-08-04 03:39:00,
2013-08-03 23:44:00,70.0,69.4,29.87,SE,128,0.0,4.0,98,0.00,,,0.62,Wunderground v.1.15,2013-08-04 03:44:00,
2013-08-03 23:49:00,69.9,69.3,29.88,SE,128,0.0,4.0,98,0.00,,,0.62,Wunderground v.1.15,2013-08-04 03:49:00,
2013-08-03 23:54:00,69.9,69.3,29.88,SE,128,0.0,4.0,98,0.00,,,0.62,Wunderground v.1.15,2013-08-04 03:54:00,